This is the latest recevied weather packets stored in our database for station/object N7TUG-8. If no packets are shown the sender has not sent any weather packets the latest 10 day(s).
| Time | Temp. | Humidity | Pressure | Rain* | Wind** | Luminosity | Snow |
|---|---|---|---|---|---|---|---|
| 1777632692 | 12.78° C | 85% | 1015.7 hPa | 0 mm | 0.45 m/s, 223° | - | - |
| 1777631872 | 12.78° C | 84% | 1015.7 hPa | 0 mm | 0.89 m/s, 235° | - | - |
| 1777631112 | 12.78° C | 82% | 1015.7 hPa | 0 mm | 0.89 m/s, 233° | - | - |
| 1777631052 | 12.78° C | 82% | 1015.7 hPa | 0 mm | 0.89 m/s, 233° | - | - |
| 1777630288 | 13.33° C | 81% | 1015.6 hPa | 0 mm | 0.89 m/s, 230° | - | - |
| 1777630256 | 13.33° C | 81% | 1015.6 hPa | 0 mm | 0.89 m/s, 230° | - | - |
| 1777629452 | 13.33° C | 80% | 1015.7 hPa | 0 mm | 0.89 m/s, 233° | - | - |
| 1777629406 | 13.33° C | 80% | 1015.7 hPa | 0 mm | 0.89 m/s, 233° | - | - |
| 1777628586 | 13.33° C | 81% | 1015.8 hPa | 0 mm | 0.45 m/s, 225° | - | - |
| 1777627666 | 13.33° C | 81% | 1015.8 hPa | 0 mm | 0.45 m/s, 277° | - | - |
| 1777627007 | 12.78° C | 82% | 1015.8 hPa | 0 mm | 0.89 m/s, 271° | - | - |
| 1777626871 | 12.78° C | 82% | 1015.8 hPa | 0 mm | 0.89 m/s, 266° | - | - |
| 1777625941 | 13.33° C | 81% | 1015.7 hPa | 0 mm | 0.45 m/s, 227° | - | - |
| 1777625442 | 13.33° C | 80% | 1015.7 hPa | 0 mm | 0.89 m/s, 242° | - | - |
| 1777625071 | 13.33° C | 80% | 1015.7 hPa | 0 mm | 0.45 m/s, 292° | - | - |
| 1777624627 | 13.89° C | 79% | 1015.8 hPa | 0 mm | 0.45 m/s, 283° | - | - |
| 1777624272 | 13.33° C | 80% | 1015.8 hPa | 0 mm | 0.45 m/s, 278° | - | - |
| 1777623727 | 13.89° C | 79% | 1015.9 hPa | 0 mm | 0.45 m/s, 250° | - | - |
| 1777623461 | 13.89° C | 80% | 1015.9 hPa | 0 mm | 0.45 m/s, 241° | - | - |
| 1777622942 | 13.89° C | 79% | 1015.8 hPa | 0 mm | 0.45 m/s, 281° | - | - |
| 1777622566 | 13.89° C | 78% | 1015.8 hPa | 0 mm | 0.45 m/s, 237° | - | - |
| 1777622087 | 13.89° C | 79% | 1015.8 hPa | 0 mm | 0.45 m/s, 144° | - | - |
| 1777621761 | 13.89° C | 78% | 1015.7 hPa | 0 mm | 0 m/s | - | - |
| 1777621292 | 14.44° C | 78% | 1015.8 hPa | 0 mm | 0 m/s | - | - |
| 1777620901 | 14.44° C | 79% | 1015.9 hPa | 0 mm | 0.45 m/s, 264° | - | - |
* Rain latest hour (hover to see other rain measurements)
** Current wind speed in m/s (hover to see current wind gust speed)